This demonstration page uses our WeatherBlox Daily Observations layout. Learn more.

Left ArrowRight Arrow

34.16533, -84.80231

Hourly Observations for September 8, 2017

Temp ( °F °C ) Dew Point ( °F °C ) Humidity (%) Winds ( mph kmh ) Pressure ( in mb ) Visibility ( mi km ) Precip ( " mm )
12:53 am 00:53 Clear 52 11.1 52 11.1 100 100 Calm 30.14 1021 10 16 0.00 0.00
1:53 am 01:53 Clear 52 11.1 52 11.1 100 100 Calm 30.14 1021 10 16 0.00 0.00
2:53 am 02:53 Clear 50 10 50 10 100 100 Calm 30.14 1021 10 16 0.00 0.00
3:53 am 03:53 Clear 50 10 50 10 100 100 Calm 30.14 1021 10 16 0.00 0.00
4:53 am 04:53 Clear 50 10 50 10 100 100 Calm 30.14 1021 10 16 0.00 0.00
5:53 am 05:53 Clear 51 10.6 51 10.6 100 100 Calm 30.14 1021 10 16 0.00 0.00
6:53 am 06:53 Clear 49 9.4 49 9.4 100 100 Calm 30.16 1022 10 16 0.00 0.00
7:53 am 07:53 Sunny 49 9.4 49 9.4 100 100 Calm 30.19 1022 10 16 0.00 0.00
8:53 am 08:53 Sunny 55 12.8 54 12.2 96 96 Calm 30.20 1023 10 16 0.00 0.00
9:53 am 09:53 Sunny 61 16.1 56 13.3 84 84 NNE 3 6 30.19 1023 10 16 0.00 0.00
10:53 am 10:53 Sunny 66 18.9 56 13.3 70 70 E 3 6 30.20 1023 10 16 0.00 0.00
11:53 am 11:53 Sunny 71 21.7 55 12.8 57 57 Calm 30.19 1022 10 16 0.00 0.00
12:53 pm 12:53 Sunny 74 23.3 55 12.8 52 52 Calm 30.18 1022 10 16 0.00 0.00
1:53 pm 13:53 Sunny 77 25 55 12.8 47 47 VRB 6 9 30.16 1021 10 16 0.00 0.00
2:53 pm 14:53 Sunny 78 25.6 53 11.7 42 42 NE 7 11 30.14 1021 10 16 0.00 0.00
3:53 pm 15:53 Sunny 78 25.6 53 11.7 42 42 Calm 30.13 1020 10 16 0.00 0.00
4:53 pm 16:53 Sunny 79 26.1 55 12.8 44 44 undefined N/A 30.11 1020 10 16 0.00 0.00
5:53 pm 17:53 Sunny 78 25.6 54 12.2 43 43 VRB 3 6 30.11 1020 10 16 0.00 0.00
6:53 pm 18:53 Sunny 76 24.4 55 12.8 48 48 NE 5 7 30.11 1020 10 16 0.00 0.00
7:53 pm 19:53 Sunny 67 19.4 61 16.1 81 81 Calm 30.11 1020 10 16 0.00 0.00
8:53 pm 20:53 Clear 61 16.1 59 15 93 93 Calm 30.13 1020 10 16 0.00 0.00
9:53 pm 21:53 Clear 61 16.1 59 15 93 93 Calm 30.14 1021 10 16 0.00 0.00
10:53 pm 22:53 Clear 59 15 58 14.4 96 96 Calm 30.15 1021 10 16 0.00 0.00
11:53 pm 23:53 Clear 58 14.4 58 14.4 100 100 Calm 30.16 1021 10 16 0.00 0.00

Powered by AerisWeather